SCP
0 0 0 0 0 0 0 0 0 0 0 0 0 0 0 0 0 0 0 1 1 3 5 6 6 5 5 3 2 2 2 0 1 2 0 1 3 3 4 5 3 2 1
0 0 0 0 0 0 0 0 0 0 0 0 0 0 0 0 0 1 0 3 1 1 2 2 2 4 4 3 3 3 2 3 2 2 1 1 3 1 0 2 1 0 0
0 0 0 0 0 0 0 0 0 0 0 0 0 0 0 0 0 0 0 0 1 1 1 1 1 1 4 4 3 3 2 2 3 1 2 1 1 1 0 0 0 0 0
0 0 0 0 0 0 0 0 0 0 0 0 0 0 0 0 0 0 0 0 0 0 1 1 4 6 5 3 3 3 2 2 1 1 1 1 1 0 0 0 0 0 0
0 0 0 0 0 0 0 1 1 1 0 0 0 0 0 0 0 0 0 0 0 0 0 0 0 0 6 3 2 3 2 2 2 1 1 1 1 1 0 0 0 0 0
0 0 0 0 0 0 0 0 0 0 1 0 0 0 0 0 0 0 0 0 0 0 0 -0 0 0 0 1 2 2 2 2 2 2 1 1 1 1 0 0 0 0 0
0 0 0 0 0 0 0 0 0 1 1 0 0 0 0 0 0 0 0 0 0 0 0 0 0 0 0 0 1 2 2 2 2 2 1 1 1 1 0 0 0 0 0
0 0 0 0 0 0 0 0 1 1 1 0 0 0 0 0 0 0 0 0 -0 -0 -0 0 0 -0 0 0 1 3 3 2 2 1 1 0 1 2 0 0 0 0 0
0 0 -0 0 0 0 0 1 1 1 1 1 1 0 0 0 0 0 0 0 0 0 0 -0 -0 1 1 0 1 2 2 3 2 2 1 1 1 1 0 0 0 0 0
0 0 0 0 0 0 0 0 1 0 0 0 0 0 0 0 0 0 0 0 0 0 0 0 -0 -0 1 0 0 0 1 2 3 2 2 2 2 1 0 0 0 0 0
0 0 -0 0 -0 0 0 0 0 0 0 0 0 0 0 0 0 0 0 0 0 0 0 0 0 0 1 0 0 0 0 1 1 2 2 2 3 2 1 0 0 0 0
0 0 0 0 0 -0 0 0 0 0 0 0 0 0 0 0 0 0 0 0 0 0 0 0 0 0 1 1 1 0 0 1 1 2 3 3 3 2 1 0 0 0 0
0 0 0 0 0 0 0 0 0 0 0 0 0 0 0 0 0 0 -0 -0 -0 -0 0 0 0 0 1 1 1 1 1 1 1 1 2 3 1 1 1 0 0 0 0
0 0 0 0 0 0 0 0 0 0 0 0 0 0 0 0 0 -0 -0 -0 -0 -0 0 0 0 0 0 0 0 1 1 1 1 2 2 2 1 1 1 0 0 0 0
0 0 0 0 0 0 0 0 0 0 0 0 0 0 0 -0 -0 -0 -0 -0 0 0 0 0 0 0 -0 0 0 0 0 0 1 2 2 2 1 0 0 0 0 0 0
0 0 0 0 0 0 0 0 -0 -0 -0 0 0 0 -0 -0 -0 -0 0 0 0 0 0 0 0 0 0 0 0 0 0 0 0 1 2 1 0 0 0 0 0 0 0
0 0 0 0 0 -0 0 -0 -0 -0 0 0 0 -0 -0 -0 -0 0 0 0 0 0 0 0 0 0 1 0 0 0 0 0 0 0 0 0 0 0 0 0 0 0 0
0 0 0 0 0 0 0 -0 -0 0 0 0 -0 -0 -0 -0 0 0 0 0 0 0 0 0 0 0 0 0 0 0 0 -0 0 0 0 0 0 0 0 0 0 0 0
0 0 0 0 0 -0 -0 -0 -0 0 -0 -0 -0 0 0 0 0 0 0 0 0 0 0 0 0 0 0 0 0 0 0 0 0 0 0 0 0 0 0 0 0 0 0
0 0 -0 -0 0 -0 -0 -0 -0 -0 -0 -0 0 0 0 0 0 0 0 0 0 0 0 0 0 0 0 0 0 0 0 0 0 0 0 0 0 0 0 0 0 0 0
-0 -0 0 0 0 0 -0 -0 -0 0 0 0 0 0 0 0 0 0 0 0 0 0 0 0 0 0 0 0 0 0 0 0 0 0 0 0 0 0 0 0 0 0 0
-0 0 -0 0 0 0 0 -0 -0 0 0 0 0 0 0 0 0 0 0 0 0 0 0 0 0 0 0 0 0 0 0 0 0 0 0 0 0 0 0 0 0 0 0
0 0 0 -0 -0 -0 -0 -0 -0 -0 0 0 0 0 0 0 0 0 0 0 0 0 0 0 0 0 0 0 0 0 0 0 0 0 0 0 0 0 0 -0 0 0 0
0 0 0 0 -0 0 0 -0 -0 -0 -0 0 0 0 0 0 0 0 0 0 0 0 0 0 0 0 0 0 0 0 0 0 0 0 0 0 0 0 -0 0 0 0 0
0 0 0 0 0 0 0 0 0 -0 -0 0 0 0 0 0 0 0 0 0 0 0 0 0 0 0 0 0 0 0 0 0 0 0 0 0 0 0 0 0 0 0 0
0 0 0 0 0 0 0 0 0 0 0 0 0 0 0 0 0 0 0 -0 0 0 0 0 0 0 0 0 -0 -0 0 0 0 0 0 0 0 0 0 0 0 0 0
Wind_Speed_500mb
10 16 15 10 7 9 9 21 22 24 26 29 31 34 38 35 40 35 46 55 67 46 65 75 68 50 63 55 65 64 58 53 53 42 40 36 47 49 37 36 40 33 33
16 18 19 15 16 17 14 12 25 27 24 29 30 31 36 35 32 34 40 32 64 77 83 65 59 50 53 54 57 66 59 57 50 51 48 39 42 42 49 35 32 35 33
15 30 32 26 25 21 17 15 17 29 29 32 34 37 41 38 38 32 31 33 27 55 77 89 75 62 71 62 56 53 69 70 66 64 50 27 28 32 36 34 38 35 35
33 22 29 34 35 31 24 23 17 13 19 42 43 38 37 37 42 45 48 53 52 49 46 77 72 76 69 65 55 48 52 72 73 68 69 66 58 19 4 37 39 41 39
12 27 42 42 35 27 27 18 15 13 19 29 42 50 48 47 48 49 52 51 55 69 66 52 72 52 64 66 62 57 57 54 63 65 71 74 74 59 16 25 42 51 52
29 34 30 19 21 25 28 22 7 24 20 31 41 45 53 57 56 56 51 51 53 52 49 62 53 68 65 59 65 63 55 52 50 51 51 45 64 55 34 26 44 49 39
26 19 21 29 28 27 28 18 15 23 28 31 39 50 51 62 63 49 52 54 56 52 52 50 43 35 74 67 68 65 58 54 48 54 50 43 39 48 46 36 50 52 48
42 37 45 25 11 37 14 10 22 29 31 38 37 46 60 60 59 54 51 60 64 63 60 59 53 42 48 75 77 66 59 50 53 51 47 52 45 41 47 53 43 43 49
44 45 53 37 26 35 67 34 34 33 32 36 47 50 55 52 51 59 67 64 64 61 62 67 66 55 36 71 54 67 62 63 57 54 51 51 48 42 51 50 51 58 57
44 46 58 45 38 38 48 46 34 36 39 44 43 50 59 61 59 61 63 66 68 69 67 73 71 63 48 42 69 62 62 64 61 55 51 47 42 52 52 49 49 66 59
30 26 40 37 27 23 40 49 49 46 41 47 53 55 52 53 63 67 69 68 67 70 73 71 70 57 50 53 52 61 75 60 58 59 54 53 41 49 43 45 49 63 60
28 45 52 48 50 38 48 41 42 46 47 52 49 50 55 56 61 61 63 62 63 68 73 67 64 54 56 56 61 65 68 61 64 65 62 56 50 42 46 46 50 59 59
24 43 45 49 56 58 47 42 44 46 45 44 49 56 62 71 77 75 73 79 79 73 66 64 66 58 54 58 60 72 75 70 69 67 58 54 53 41 44 45 48 65 59
62 64 59 62 57 63 49 52 50 49 46 47 53 64 67 73 80 79 78 77 65 63 60 65 62 64 62 65 69 73 73 69 71 59 55 51 48 43 51 49 55 58 59
69 70 71 61 59 59 58 54 56 54 56 58 61 66 73 74 73 71 72 59 57 55 57 62 66 64 64 63 59 61 54 54 57 60 51 47 45 43 51 52 60 64 65
76 77 72 65 70 72 77 76 68 69 67 69 71 73 69 69 68 68 62 53 51 50 54 66 66 62 49 52 54 61 63 59 54 59 48 36 39 44 50 60 60 68 75
77 77 77 80 81 75 70 72 77 83 78 77 74 67 64 64 69 63 55 50 51 47 58 60 54 45 32 40 45 52 32 53 68 31 29 34 44 49 54 52 64 67 62
75 78 79 75 70 72 71 70 71 69 66 66 65 66 64 68 62 54 45 53 46 48 52 41 40 30 32 24 23 17 32 31 51 38 39 47 50 54 54 47 60 58 57
74 76 76 80 83 79 70 71 66 63 57 64 65 64 60 60 56 45 47 43 41 33 30 35 32 24 22 2 27 18 33 40 41 40 46 35 47 62 65 68 70 74 65
74 76 90 82 77 74 68 64 67 65 76 63 56 58 54 55 48 39 39 29 29 30 28 29 23 16 20 31 23 18 24 35 40 36 30 40 47 62 66 86 90 83 68
85 80 72 72 71 74 68 70 69 68 63 59 48 43 49 42 32 29 29 35 18 19 17 16 18 18 22 23 13 10 16 18 26 28 42 49 63 84 79 84 73 67 74
79 69 81 80 73 66 64 69 68 61 56 43 40 39 26 25 22 27 36 22 18 9 7 10 11 18 20 17 19 21 16 18 5 24 38 49 56 86 76 71 67 73 74
82 83 80 81 73 63 56 61 57 48 36 31 27 19 19 17 22 28 14 15 8 4 11 15 20 27 25 20 23 21 25 13 23 31 61 80 77 62 53 66 80 83 88
83 81 79 78 71 56 50 44 38 31 25 20 15 16 15 10 17 17 11 11 8 12 17 23 25 27 25 24 31 33 28 21 33 69 90 78 73 72 89 82 79 73 71
88 83 75 64 59 53 44 34 30 24 24 21 23 18 12 19 19 9 15 7 9 15 18 20 24 28 28 26 21 37 35 38 95 102 102 98 95 97 81 66 61 65 67
85 71 65 66 56 45 37 26 20 23 24 25 21 16 17 16 11 6 14 15 13 21 18 18 16 21 17 22 28 33 47 104 104 108 118 118 102 84 69 62 68 69 62
Wind_Direction_500mb
158 168 146 156 194 245 303 317 325 326 334 338 348 344 339 317 270 262 263 261 252 256 241 246 240 242 234 235 232 235 237 223 234 235 235 250 218 220 227 211 214 217 217
188 175 186 195 216 241 257 296 317 322 333 325 334 333 332 334 326 313 271 277 258 255 259 264 249 254 240 236 237 235 223 226 225 229 235 227 208 226 226 213 203 193 218
255 209 185 202 218 223 234 247 277 311 336 321 326 322 323 320 313 296 292 275 287 262 262 269 276 236 250 234 240 236 226 229 226 230 229 221 232 232 232 209 214 215 212
218 227 192 209 214 218 228 257 263 296 316 316 324 321 327 320 310 308 311 291 262 258 270 265 256 247 253 242 232 240 238 231 232 232 235 243 248 237 166 162 182 203 203
261 222 228 239 232 212 226 230 266 293 310 318 322 319 314 308 311 310 303 300 293 268 271 291 249 259 252 246 231 235 235 237 238 237 240 242 241 250 222 180 172 202 198
256 247 234 226 235 226 221 200 342 304 294 313 316 309 309 309 307 307 307 299 301 293 290 303 289 277 216 240 233 229 234 228 237 238 237 252 241 242 217 186 183 189 192
299 338 300 285 265 279 252 256 259 286 301 311 308 305 303 303 307 306 299 298 292 287 275 297 303 263 226 239 235 224 224 221 229 235 229 243 255 246 239 230 210 194 196
13 14 6 351 353 334 315 298 294 295 299 308 303 300 305 304 303 302 292 280 280 281 276 267 285 284 241 247 239 231 226 220 227 228 226 225 230 244 244 249 219 200 201
349 355 349 325 342 329 311 327 311 305 299 295 296 300 303 302 295 293 295 295 292 283 277 266 264 276 264 244 254 241 227 222 226 228 227 227 229 229 241 251 232 207 198
340 339 325 315 312 293 309 314 321 306 294 297 300 302 297 297 298 294 291 292 289 289 279 269 264 273 275 255 250 242 233 223 222 227 229 234 233 234 245 239 222 212 221
333 343 333 325 318 306 310 301 301 297 299 298 300 301 297 296 293 293 293 289 287 289 286 277 270 270 274 264 235 241 236 228 226 225 228 234 228 230 239 239 224 213 221
313 327 310 316 302 293 302 300 291 305 303 297 298 297 298 302 298 294 293 290 285 284 287 280 275 260 268 258 247 242 241 228 229 225 223 222 226 236 242 234 238 222 219
321 312 318 321 313 327 306 301 295 299 298 298 296 292 292 289 290 287 286 282 275 278 283 279 276 255 262 259 250 243 239 228 226 227 223 227 227 230 237 229 230 204 209
326 324 326 318 318 316 315 323 317 309 302 296 292 291 289 287 286 287 284 284 280 273 282 275 270 249 251 251 241 246 243 231 223 221 222 224 225 228 228 227 214 221 208
317 315 314 317 316 315 320 317 310 308 299 293 291 289 291 291 290 290 289 284 280 274 282 276 264 254 255 261 254 249 237 241 228 223 224 229 233 233 228 223 213 207 190
313 308 312 317 315 310 309 309 306 304 301 296 293 290 289 291 292 294 291 285 279 277 280 279 271 261 270 258 253 255 266 259 254 219 216 215 227 226 222 211 219 201 183
314 315 314 310 308 306 302 300 298 299 294 291 292 290 289 286 294 291 287 288 279 282 280 283 271 261 264 254 251 238 220 251 257 219 227 235 220 219 216 217 201 184 180
309 308 307 306 306 305 302 300 295 291 287 287 287 288 287 289 288 285 283 284 285 289 288 282 268 251 247 244 240 204 188 206 227 223 237 239 215 219 214 206 178 152 141
305 305 304 303 302 300 299 297 292 288 287 288 284 281 282 284 279 273 286 281 294 281 281 276 272 245 246 242 237 215 212 220 232 226 227 231 214 212 202 181 163 150 148
308 307 304 303 302 300 299 294 292 288 288 288 285 283 281 273 268 270 272 281 268 279 279 263 272 231 200 201 210 200 202 204 208 208 209 220 217 203 193 177 158 148 140
306 307 304 303 299 299 297 293 291 288 288 290 287 275 269 266 268 270 278 289 287 287 282 253 233 206 193 201 203 168 147 171 182 184 192 188 177 168 179 166 160 151 141
310 308 307 306 305 302 298 295 292 290 291 285 275 270 254 264 264 265 293 269 278 282 248 199 195 180 179 180 155 155 154 123 211 180 167 164 178 168 165 164 152 142 144
310 313 311 308 308 304 296 292 290 293 290 278 271 248 274 274 271 279 223 258 241 217 186 179 180 174 170 157 154 147 133 112 169 170 163 162 164 163 147 140 142 139 137
317 317 315 313 313 314 310 301 298 289 271 266 251 262 268 263 281 193 225 232 181 164 171 173 178 175 173 173 174 162 156 156 182 152 144 137 132 137 137 134 132 130 134
322 321 317 316 315 320 314 308 305 283 248 241 246 227 269 288 189 197 193 212 156 174 185 181 192 192 182 176 187 185 177 183 150 139 133 122 129 138 134 136 141 141 144
326 328 328 325 322 323 316 294 295 261 235 223 228 225 228 237 232 234 187 168 157 164 162 182 193 200 204 177 176 181 165 150 139 130 126 131 142 140 142 146 144 147 140
Wind_Speed_850mb
10 16 15 10 7 9 9 21 22 24 26 29 31 34 38 35 40 35 46 55 67 46 65 75 68 50 63 55 65 64 58 53 53 42 40 36 47 49 37 36 40 33 33
16 18 19 15 16 17 14 12 25 27 24 29 30 31 36 35 32 34 40 32 64 77 83 65 59 50 53 54 57 66 59 57 50 51 48 39 42 42 49 35 32 35 33
15 30 32 26 25 21 17 15 17 29 29 32 34 37 41 38 38 32 31 33 27 55 77 89 75 62 71 62 56 53 69 70 66 64 50 27 28 32 36 34 38 35 35
33 22 29 34 35 31 24 23 17 13 19 42 43 38 37 37 42 45 48 53 52 49 46 77 72 76 69 65 55 48 52 72 73 68 69 66 58 19 4 37 39 41 39
12 27 42 42 35 27 27 18 15 13 19 29 42 50 48 47 48 49 52 51 55 69 66 52 72 52 64 66 62 57 57 54 63 65 71 74 74 59 16 25 42 51 52
29 34 30 19 21 25 28 22 7 24 20 31 41 45 53 57 56 56 51 51 53 52 49 62 53 68 65 59 65 63 55 52 50 51 51 45 64 55 34 26 44 49 39
26 19 21 29 28 27 28 18 15 23 28 31 39 50 51 62 63 49 52 54 56 52 52 50 43 35 74 67 68 65 58 54 48 54 50 43 39 48 46 36 50 52 48
42 37 45 25 11 37 14 10 22 29 31 38 37 46 60 60 59 54 51 60 64 63 60 59 53 42 48 75 77 66 59 50 53 51 47 52 45 41 47 53 43 43 49
44 45 53 37 26 35 67 34 34 33 32 36 47 50 55 52 51 59 67 64 64 61 62 67 66 55 36 71 54 67 62 63 57 54 51 51 48 42 51 50 51 58 57
44 46 58 45 38 38 48 46 34 36 39 44 43 50 59 61 59 61 63 66 68 69 67 73 71 63 48 42 69 62 62 64 61 55 51 47 42 52 52 49 49 66 59
30 26 40 37 27 23 40 49 49 46 41 47 53 55 52 53 63 67 69 68 67 70 73 71 70 57 50 53 52 61 75 60 58 59 54 53 41 49 43 45 49 63 60
28 45 52 48 50 38 48 41 42 46 47 52 49 50 55 56 61 61 63 62 63 68 73 67 64 54 56 56 61 65 68 61 64 65 62 56 50 42 46 46 50 59 59
24 43 45 49 56 58 47 42 44 46 45 44 49 56 62 71 77 75 73 79 79 73 66 64 66 58 54 58 60 72 75 70 69 67 58 54 53 41 44 45 48 65 59
62 64 59 62 57 63 49 52 50 49 46 47 53 64 67 73 80 79 78 77 65 63 60 65 62 64 62 65 69 73 73 69 71 59 55 51 48 43 51 49 55 58 59
69 70 71 61 59 59 58 54 56 54 56 58 61 66 73 74 73 71 72 59 57 55 57 62 66 64 64 63 59 61 54 54 57 60 51 47 45 43 51 52 60 64 65
76 77 72 65 70 72 77 76 68 69 67 69 71 73 69 69 68 68 62 53 51 50 54 66 66 62 49 52 54 61 63 59 54 59 48 36 39 44 50 60 60 68 75
77 77 77 80 81 75 70 72 77 83 78 77 74 67 64 64 69 63 55 50 51 47 58 60 54 45 32 40 45 52 32 53 68 31 29 34 44 49 54 52 64 67 62
75 78 79 75 70 72 71 70 71 69 66 66 65 66 64 68 62 54 45 53 46 48 52 41 40 30 32 24 23 17 32 31 51 38 39 47 50 54 54 47 60 58 57
74 76 76 80 83 79 70 71 66 63 57 64 65 64 60 60 56 45 47 43 41 33 30 35 32 24 22 2 27 18 33 40 41 40 46 35 47 62 65 68 70 74 65
74 76 90 82 77 74 68 64 67 65 76 63 56 58 54 55 48 39 39 29 29 30 28 29 23 16 20 31 23 18 24 35 40 36 30 40 47 62 66 86 90 83 68
85 80 72 72 71 74 68 70 69 68 63 59 48 43 49 42 32 29 29 35 18 19 17 16 18 18 22 23 13 10 16 18 26 28 42 49 63 84 79 84 73 67 74
79 69 81 80 73 66 64 69 68 61 56 43 40 39 26 25 22 27 36 22 18 9 7 10 11 18 20 17 19 21 16 18 5 24 38 49 56 86 76 71 67 73 74
82 83 80 81 73 63 56 61 57 48 36 31 27 19 19 17 22 28 14 15 8 4 11 15 20 27 25 20 23 21 25 13 23 31 61 80 77 62 53 66 80 83 88
83 81 79 78 71 56 50 44 38 31 25 20 15 16 15 10 17 17 11 11 8 12 17 23 25 27 25 24 31 33 28 21 33 69 90 78 73 72 89 82 79 73 71
88 83 75 64 59 53 44 34 30 24 24 21 23 18 12 19 19 9 15 7 9 15 18 20 24 28 28 26 21 37 35 38 95 102 102 98 95 97 81 66 61 65 67
85 71 65 66 56 45 37 26 20 23 24 25 21 16 17 16 11 6 14 15 13 21 18 18 16 21 17 22 28 33 47 104 104 108 118 118 102 84 69 62 68 69 62
Wind_Direction_850mb
158 168 146 156 194 245 303 317 325 326 334 338 348 344 339 317 270 262 263 261 252 256 241 246 240 242 234 235 232 235 237 223 234 235 235 250 218 220 227 211 214 217 217
188 175 186 195 216 241 257 296 317 322 333 325 334 333 332 334 326 313 271 277 258 255 259 264 249 254 240 236 237 235 223 226 225 229 235 227 208 226 226 213 203 193 218
255 209 185 202 218 223 234 247 277 311 336 321 326 322 323 320 313 296 292 275 287 262 262 269 276 236 250 234 240 236 226 229 226 230 229 221 232 232 232 209 214 215 212
218 227 192 209 214 218 228 257 263 296 316 316 324 321 327 320 310 308 311 291 262 258 270 265 256 247 253 242 232 240 238 231 232 232 235 243 248 237 166 162 182 203 203
261 222 228 239 232 212 226 230 266 293 310 318 322 319 314 308 311 310 303 300 293 268 271 291 249 259 252 246 231 235 235 237 238 237 240 242 241 250 222 180 172 202 198
256 247 234 226 235 226 221 200 342 304 294 313 316 309 309 309 307 307 307 299 301 293 290 303 289 277 216 240 233 229 234 228 237 238 237 252 241 242 217 186 183 189 192
299 338 300 285 265 279 252 256 259 286 301 311 308 305 303 303 307 306 299 298 292 287 275 297 303 263 226 239 235 224 224 221 229 235 229 243 255 246 239 230 210 194 196
13 14 6 351 353 334 315 298 294 295 299 308 303 300 305 304 303 302 292 280 280 281 276 267 285 284 241 247 239 231 226 220 227 228 226 225 230 244 244 249 219 200 201
349 355 349 325 342 329 311 327 311 305 299 295 296 300 303 302 295 293 295 295 292 283 277 266 264 276 264 244 254 241 227 222 226 228 227 227 229 229 241 251 232 207 198
340 339 325 315 312 293 309 314 321 306 294 297 300 302 297 297 298 294 291 292 289 289 279 269 264 273 275 255 250 242 233 223 222 227 229 234 233 234 245 239 222 212 221
333 343 333 325 318 306 310 301 301 297 299 298 300 301 297 296 293 293 293 289 287 289 286 277 270 270 274 264 235 241 236 228 226 225 228 234 228 230 239 239 224 213 221
313 327 310 316 302 293 302 300 291 305 303 297 298 297 298 302 298 294 293 290 285 284 287 280 275 260 268 258 247 242 241 228 229 225 223 222 226 236 242 234 238 222 219
321 312 318 321 313 327 306 301 295 299 298 298 296 292 292 289 290 287 286 282 275 278 283 279 276 255 262 259 250 243 239 228 226 227 223 227 227 230 237 229 230 204 209
326 324 326 318 318 316 315 323 317 309 302 296 292 291 289 287 286 287 284 284 280 273 282 275 270 249 251 251 241 246 243 231 223 221 222 224 225 228 228 227 214 221 208
317 315 314 317 316 315 320 317 310 308 299 293 291 289 291 291 290 290 289 284 280 274 282 276 264 254 255 261 254 249 237 241 228 223 224 229 233 233 228 223 213 207 190
313 308 312 317 315 310 309 309 306 304 301 296 293 290 289 291 292 294 291 285 279 277 280 279 271 261 270 258 253 255 266 259 254 219 216 215 227 226 222 211 219 201 183
314 315 314 310 308 306 302 300 298 299 294 291 292 290 289 286 294 291 287 288 279 282 280 283 271 261 264 254 251 238 220 251 257 219 227 235 220 219 216 217 201 184 180
309 308 307 306 306 305 302 300 295 291 287 287 287 288 287 289 288 285 283 284 285 289 288 282 268 251 247 244 240 204 188 206 227 223 237 239 215 219 214 206 178 152 141
305 305 304 303 302 300 299 297 292 288 287 288 284 281 282 284 279 273 286 281 294 281 281 276 272 245 246 242 237 215 212 220 232 226 227 231 214 212 202 181 163 150 148
308 307 304 303 302 300 299 294 292 288 288 288 285 283 281 273 268 270 272 281 268 279 279 263 272 231 200 201 210 200 202 204 208 208 209 220 217 203 193 177 158 148 140
306 307 304 303 299 299 297 293 291 288 288 290 287 275 269 266 268 270 278 289 287 287 282 253 233 206 193 201 203 168 147 171 182 184 192 188 177 168 179 166 160 151 141
310 308 307 306 305 302 298 295 292 290 291 285 275 270 254 264 264 265 293 269 278 282 248 199 195 180 179 180 155 155 154 123 211 180 167 164 178 168 165 164 152 142 144
310 313 311 308 308 304 296 292 290 293 290 278 271 248 274 274 271 279 223 258 241 217 186 179 180 174 170 157 154 147 133 112 169 170 163 162 164 163 147 140 142 139 137
317 317 315 313 313 314 310 301 298 289 271 266 251 262 268 263 281 193 225 232 181 164 171 173 178 175 173 173 174 162 156 156 182 152 144 137 132 137 137 134 132 130 134
322 321 317 316 315 320 314 308 305 283 248 241 246 227 269 288 189 197 193 212 156 174 185 181 192 192 182 176 187 185 177 183 150 139 133 122 129 138 134 136 141 141 144
326 328 328 325 322 323 316 294 295 261 235 223 228 225 228 237 232 234 187 168 157 164 162 182 193 200 204 177 176 181 165 150 139 130 126 131 142 140 142 146 144 147 140